• In Uzbekistan
  • List of Countries
  • For 7 days
  • Water Temperature
  • Satellite Maps
  • Weather Map
  • Weather Widgets
  • user-avatar
    Login

    Hourly Weather Pilis

    Today, 22 September, Friday

    Time Temperature Precipitation Wind Pressure Humidity
    00:00 +10°C° 0.2 mm 5 mps 748 mmHg 86%
    01:00 +11°C° 0 mm 3 mps 748 mmHg 87%
    02:00 +11°C° 0 mm 3 mps 749 mmHg 88%
    03:00 +11°C° 0 mm 3 mps 749 mmHg 89%
    04:00 +10°C° 0 mm 3 mps 749 mmHg 90%
    05:00 +11°C° 0 mm 3 mps 749 mmHg 88%
    06:00 +11°C° 0 mm 3 mps 749 mmHg 87%
    07:00 +11°C° 0 mm 3 mps 750 mmHg 85%
    08:00 +13°C° 0 mm 3 mps 750 mmHg 79%
    09:00 +14°C° 0 mm 3 mps 750 mmHg 73%
    10:00 +17°C° 0 mm 3 mps 751 mmHg 66%
    11:00 +17°C° 0 mm 3 mps 751 mmHg 62%
    12:00 +18°C° 0 mm 3 mps 751 mmHg 59%
    13:00 +19°C° 0 mm 4 mps 751 mmHg 55%
    14:00 +19°C° 0 mm 4 mps 751 mmHg 55%
    15:00 +19°C° 0 mm 4 mps 751 mmHg 55%
    16:00 +19°C° 0 mm 4 mps 751 mmHg 56%
    17:00 +18°C° 0 mm 4 mps 751 mmHg 60%
    18:00 +15°C° 0 mm 4 mps 751 mmHg 65%
    19:00 +14°C° 0 mm 3 mps 751 mmHg 69%
    20:00 +13°C° 0 mm 3 mps 752 mmHg 70%
    21:00 +13°C° 0 mm 3 mps 752 mmHg 71%
    22:00 +12°C° 0 mm 3 mps 752 mmHg 72%
    23:00 +12°C° 0 mm 3 mps 752 mmHg 74%

    Tomorrow, 23 September, Saturday

    Time Temperature Precipitation Wind Pressure Humidity
    00:00 +11°C° 0 mm 3 mps 752 mmHg 75%
    01:00 +11°C° 0 mm 3 mps 752 mmHg 76%
    02:00 +11°C° 0 mm 3 mps 752 mmHg 78%
    03:00 +10°C° 0 mm 3 mps 752 mmHg 80%
    04:00 +10°C° 0 mm 3 mps 752 mmHg 82%
    05:00 +11°C° 0 mm 3 mps 752 mmHg 80%
    06:00 +11°C° 0 mm 4 mps 752 mmHg 77%
    07:00 +11°C° 0 mm 4 mps 752 mmHg 75%
    08:00 +13°C° 0 mm 5 mps 752 mmHg 68%
    09:00 +15°C° 0 mm 5 mps 752 mmHg 60%
    10:00 +17°C° 0 mm 6 mps 752 mmHg 52%
    11:00 +17°C° 0 mm 6 mps 751 mmHg 51%
    12:00 +19°C° 0 mm 6 mps 751 mmHg 49%
    13:00 +20°C° 0 mm 6 mps 751 mmHg 48%
    14:00 +19°C° 0.1 mm 6 mps 751 mmHg 53%
    15:00 +17°C° 0.1 mm 5 mps 751 mmHg 57%
    16:00 +16°C° 0.1 mm 5 mps 751 mmHg 62%
    17:00 +15°C° 0 mm 4 mps 751 mmHg 66%
    18:00 +14°C° 0 mm 3 mps 751 mmHg 70%
    19:00 +15°C° 0 mm 2 mps 751 mmHg 73%
    20:00 +13°C° 0 mm 3 mps 751 mmHg 75%
    21:00 +13°C° 0 mm 3 mps 751 mmHg 77%
    22:00 +13°C° 0 mm 3 mps 751 mmHg 79%
    23:00 +13°C° 0.1 mm 3 mps 751 mmHg 80%

    Day after tomorrow, 24 September, Sunday

    Time Temperature Precipitation Wind Pressure Humidity
    00:00 +14°C° 0.1 mm 2 mps 751 mmHg 80%
    01:00 +14°C° 0.1 mm 2 mps 751 mmHg 81%
    02:00 +13°C° 0.3 mm 2 mps 751 mmHg 83%
    03:00 +13°C° 0.3 mm 2 mps 751 mmHg 84%
    04:00 +13°C° 0.3 mm 2 mps 751 mmHg 86%
    05:00 +13°C° 0.3 mm 2 mps 751 mmHg 86%
    06:00 +13°C° 0.3 mm 2 mps 751 mmHg 86%
    07:00 +13°C° 0.3 mm 2 mps 752 mmHg 86%
    08:00 +14°C° 0.2 mm 2 mps 752 mmHg 83%
    09:00 +15°C° 0.2 mm 2 mps 752 mmHg 79%
    10:00 +15°C° 0.2 mm 2 mps 752 mmHg 76%
    11:00 +16°C° 0.1 mm 2 mps 752 mmHg 72%
    12:00 +18°C° 0.1 mm 1 mps 752 mmHg 68%
    13:00 +19°C° 0.1 mm 1 mps 752 mmHg 65%
    14:00 +19°C° 0 mm 1 mps 752 mmHg 65%
    15:00 +19°C° 0 mm 1 mps 752 mmHg 65%
    16:00 +18°C° 0 mm 2 mps 752 mmHg 65%
    17:00 +17°C° 0 mm 2 mps 752 mmHg 69%
    18:00 +16°C° 0 mm 2 mps 753 mmHg 74%
    19:00 +15°C° 0 mm 2 mps 753 mmHg 79%
    20:00 +14°C° 0 mm 2 mps 753 mmHg 80%
    21:00 +14°C° 0 mm 2 mps 753 mmHg 81%
    22:00 +13°C° 0 mm 3 mps 753 mmHg 83%
    23:00 +12°C° 0 mm 3 mps 753 mmHg 84%

    25 September, Monday

    Time Temperature Precipitation Wind Pressure Humidity
    00:00 +12°C° 0 mm 3 mps 753 mmHg 86%
    01:00 +12°C° 0 mm 3 mps 753 mmHg 87%
    02:00 +12°C° 0 mm 3 mps 753 mmHg 87%
    03:00 +12°C° 0 mm 4 mps 753 mmHg 88%
    04:00 +11°C° 0 mm 4 mps 753 mmHg 89%
    05:00 +12°C° 0 mm 4 mps 753 mmHg 87%
    06:00 +12°C° 0 mm 4 mps 753 mmHg 85%
    07:00 +12°C° 0 mm 5 mps 753 mmHg 84%
    08:00 +14°C° 0 mm 5 mps 753 mmHg 76%
    09:00 +16°C° 0 mm 5 mps 753 mmHg 68%
    10:00 +19°C° 0 mm 5 mps 753 mmHg 60%
    11:00 +20°C° 0 mm 5 mps 753 mmHg 55%
    12:00 +22°C° 0 mm 5 mps 753 mmHg 49%
    13:00 +23°C° 0 mm 5 mps 752 mmHg 44%
    14:00 +23°C° 0 mm 4 mps 752 mmHg 45%
    15:00 +23°C° 0 mm 4 mps 752 mmHg 45%
    16:00 +23°C° 0 mm 4 mps 752 mmHg 46%
    17:00 +21°C° 0 mm 4 mps 752 mmHg 50%
    18:00 +20°C° 0 mm 4 mps 752 mmHg 55%
    19:00 +18°C° 0 mm 3 mps 753 mmHg 60%
    20:00 +18°C° 0.1 mm 3 mps 753 mmHg 61%
    21:00 +17°C° 0.1 mm 3 mps 753 mmHg 63%
    22:00 +17°C° 0.1 mm 3 mps 753 mmHg 64%
    23:00 +16°C° 0.1 mm 3 mps 753 mmHg 65%

    26 September, Tuesday

    Time Temperature Precipitation Wind Pressure Humidity
    00:00 +16°C° 0.1 mm 3 mps 753 mmHg 67%
    01:00 +15°C° 0.1 mm 2 mps 753 mmHg 68%
    02:00 +15°C° 0 mm 2 mps 753 mmHg 70%
    03:00 +15°C° 0 mm 2 mps 753 mmHg 71%
    04:00 +14°C° 0 mm 2 mps 753 mmHg 73%
    05:00 +14°C° 0 mm 3 mps 753 mmHg 72%
    06:00 +14°C° 0 mm 3 mps 753 mmHg 72%
    07:00 +14°C° 0 mm 3 mps 753 mmHg 71%
    08:00 +17°C° 0 mm 3 mps 754 mmHg 65%
    09:00 +19°C° 0 mm 3 mps 754 mmHg 59%
    10:00 +21°C° 0 mm 3 mps 754 mmHg 53%
    11:00 +22°C° 0 mm 3 mps 754 mmHg 49%
    12:00 +24°C° 0 mm 3 mps 753 mmHg 46%
    13:00 +25°C° 0 mm 3 mps 753 mmHg 42%
    14:00 +25°C° 0 mm 3 mps 753 mmHg 43%
    15:00 +25°C° 0 mm 2 mps 753 mmHg 44%
    16:00 +25°C° 0 mm 2 mps 753 mmHg 44%
    17:00 +23°C° 0 mm 2 mps 753 mmHg 49%
    18:00 +21°C° 0 mm 2 mps 753 mmHg 54%
    19:00 +19°C° 0 mm 2 mps 753 mmHg 58%
    20:00 +18°C° 0 mm 2 mps 753 mmHg 60%
    21:00 +18°C° 0 mm 2 mps 753 mmHg 63%
    22:00 +17°C° 0 mm 2 mps 753 mmHg 65%
    23:00 +17°C° 0 mm 2 mps 753 mmHg 67%

    27 September, Wednesday

    Time Temperature Precipitation Wind Pressure Humidity
    00:00 +16°C° 0 mm 2 mps 754 mmHg 69%
    01:00 +16°C° 0 mm 2 mps 754 mmHg 71%
    02:00 +16°C° 0 mm 2 mps 754 mmHg 72%
    03:00 +15°C° 0 mm 2 mps 754 mmHg 73%
    04:00 +15°C° 0 mm 2 mps 754 mmHg 74%
    05:00 +15°C° 0 mm 2 mps 754 mmHg 72%
    06:00 +15°C° 0 mm 2 mps 754 mmHg 71%
    07:00 +16°C° 0 mm 2 mps 755 mmHg 69%
    08:00 +17°C° 0 mm 2 mps 755 mmHg 63%
    09:00 +19°C° 0 mm 2 mps 755 mmHg 56%
    10:00 +21°C° 0 mm 2 mps 755 mmHg 50%
    11:00 +23°C° 0 mm 2 mps 755 mmHg 47%
    12:00 +24°C° 0 mm 2 mps 755 mmHg 44%
    13:00 +25°C° 0 mm 2 mps 755 mmHg 41%
    14:00 +24°C° 0 mm 2 mps 755 mmHg 41%
    15:00 +24°C° 0 mm 2 mps 755 mmHg 41%
    16:00 +24°C° 0 mm 2 mps 755 mmHg 41%
    17:00 +23°C° 0 mm 2 mps 755 mmHg 44%
    18:00 +20°C° 0 mm 2 mps 755 mmHg 46%
    19:00 +19°C° 0 mm 2 mps 755 mmHg 49%
    20:00 +18°C° 0 mm 2 mps 755 mmHg 50%
    21:00 +17°C° 0 mm 2 mps 755 mmHg 51%
    22:00 +17°C° 0 mm 2 mps 756 mmHg 52%
    23:00 +16°C° 0 mm 2 mps 756 mmHg 53%
    Show more